Home > Weather > Mersin > Past weeks

Flag for Turkey Past Weather in Mersin, Turkey — Yesterday and Last 2 Weeks

Now
97 °F

Passing clouds.


Feels Like: 100 °F
Forecast: 71 / 96 °F
Wind: 6 mph from Southwest

Location: Adana / Sakirpasa

Current Time: Aug 24, 2016 at 1:38:12 PM

Latest Report: Aug 24, 2016 at 12:50 PM


Visibility: N/A

Pressure: 29.71 "Hg

Humidity: 37%

Dew Point: 66 °F

Location of MersinLocation

Past Weather in Mersin — Graph

°F

Mersin Temperature Yesterday

Maximum temperature yesterday: 97 °F (at 12:50 PM)
Minimum temperature yesterday: 75 °F (at 12:50 AM)
Average temperature yesterday: 84 °F

High & Low Weather Summary for the Past Weeks

 TemperatureHumidityPressure
High99 °F (Aug 21, 1:50 PM)94% (Aug 11, 3:50 AM)29.83 "Hg (Aug 11, 3:50 AM)
Low72 °F (Aug 22, 3:50 AM)32% (Aug 22, 2:50 PM)29.62 "Hg (Aug 9, 4:20 PM)
Average85 °F73%29.73 "Hg
* Reported Aug 9 12:20 PM — Aug 24 12:20 PM, Mersin, Weather by CustomWeather, © 2016

Note: Actual official high and low records may vary slightly from our data, if they occured in-between our weather recording intervals... More about our weather records

Advertising

Mersin Weather History for the Previous 24 Hours

Scroll right to see more
 ConditionsComfort  
Time TempWeatherWind HumidityBarometerVisibility
12:20 PM
Wed, Aug 24
99 °FPassing clouds.6 mph37%29.71 "HgN/A
11:50 AM95 °FPassing clouds.6 mph41%29.71 "HgN/A
11:20 AM93 °FSunny.3 mph47%29.71 "Hg10 mi
10:50 AM95 °FSunny.3 mph44%29.74 "Hg10 mi
10:20 AM90 °FPassing clouds.3 mph52%29.74 "HgN/A
9:50 AM88 °FPassing clouds.3 mph59%29.74 "HgN/A
9:20 AM86 °FSunny.2 mph62%29.74 "Hg10 mi
8:50 AM86 °FSunny.3 mph62%29.74 "Hg10 mi
8:20 AM84 °FPassing clouds.3 mph66%29.74 "HgN/A
7:50 AM79 °FSunny.2 mph79%29.77 "Hg10 mi
7:20 AM79 °FSunny.1 mph79%29.77 "Hg10 mi
6:50 AM77 °FPassing clouds.5 mph79%29.77 "HgN/A
6:20 AM72 °FClear.2 mph88%29.77 "Hg10 mi
5:50 AM72 °FClear.2 mph88%29.74 "Hg10 mi
5:20 AM72 °FClear.2 mph94%29.77 "Hg10 mi
4:50 AM72 °FClear.3 mph94%29.77 "Hg10 mi
4:20 AM73 °FClear.1 mph89%29.77 "Hg10 mi
3:50 AM75 °FClear.5 mph89%29.77 "Hg10 mi
3:20 AM75 °FClear.2 mph89%29.77 "Hg10 mi
2:50 AM73 °FClear.1 mph89%29.77 "Hg10 mi
2:20 AM75 °FClear.5 mph89%29.77 "Hg10 mi
1:50 AM75 °FClear.2 mph89%29.77 "Hg10 mi
1:20 AM75 °FClear.1 mph89%29.77 "Hg10 mi
12:50 AM75 °FClear.2 mph89%29.77 "Hg10 mi
12:20 AM75 °FClear.2 mph89%29.77 "Hg10 mi
11:50 PM
Tue, Aug 23
75 °FClear.2 mph89%29.77 "Hg10 mi
11:20 PM77 °FClear.1 mph83%29.77 "Hg10 mi
10:50 PM79 °FClear.No wind84%29.77 "Hg10 mi
10:20 PM79 °FClear.2 mph84%29.77 "Hg4 mi
9:50 PM77 °FClear.1 mph89%29.77 "Hg4 mi
9:20 PM77 °FClear.1 mph83%29.77 "Hg4 mi
8:50 PM79 °FClear.2 mph79%29.77 "Hg4 mi
8:20 PM81 °FClear.5 mph79%29.77 "Hg4 mi
7:50 PM82 °FClear.5 mph70%29.77 "Hg4 mi
7:20 PM84 °FRain. Clear.5 mph66%29.74 "Hg2 mi
6:50 PM86 °FRain. Clear.9 mph62%29.74 "Hg2 mi
6:20 PM88 °FRain. Clear.9 mph59%29.74 "Hg3 mi
5:50 PM91 °FRain. Clear.10 mph49%29.74 "Hg3 mi
5:20 PM91 °FRain. Clear.9 mph52%29.74 "Hg3 mi
4:50 PM93 °FSunny.10 mph47%29.74 "Hg10 mi
4:20 PM93 °FPassing clouds.12 mph44%29.74 "HgN/A
3:50 PM95 °FSunny.12 mph41%29.74 "Hg10 mi
3:20 PM95 °FPassing clouds.12 mph44%29.74 "HgN/A
2:50 PM95 °FSunny.12 mph47%29.74 "Hg10 mi
2:20 PM97 °FSunny.8 mph42%29.77 "Hg10 mi
1:50 PM97 °FPassing clouds.7 mph37%29.77 "HgN/A
1:20 PM97 °FPassing clouds.6 mph34%29.77 "HgN/A
Weather by CustomWeather, © 2016

See weather overviewHow to use our weather pages